Regional Weather Roundup
Issued by NWS

Home | Current Version | Previous Version | Graphics & Text | Print | Product List | Glossary On
Versions: 1 2 3 4 5 6 7 8 9 10 11 12 13 14 15 16 17 18 19 20 21 22 23 24 25 26 27 28 29 30 31 32 33 34 35 36 37 38 39 40 41 42 43 44 45 46 47 48 49 50
000
ASUS45 KBOI 272010
RWRID
WEATHER ROUNDUP FOR IDAHO
NATIONAL WEATHER SERVICE BOISE ID
200 PM MDT MON APR 27 2015

NOTE: "FAIR" INDICATES FEW OR NO CLOUDS BELOW 12000 FEET
WITH NO SIGNIFICANT WEATHER AND/OR OBSTRUCTIONS TO VISIBILITY

IDZ012-014-272100-
SOUTHWEST IDAHO


CITY           SKY/WX    TMP DP  RH WIND       PRES   REMARKS
BOISE          SUNNY     63  25  23 VRB7      30.28F
CALDWELL       SUNNY     63  30  29 W6        30.29F
MOUNTAIN HOME  SUNNY     62  26  26 S6        30.28F
$$

IDZ016-017-272100-
SOUTHCENTRAL IDAHO


CITY           SKY/WX    TMP DP  RH WIND       PRES   REMARKS
BURLEY         SUNNY     57  22  25 NW6       30.27F
JEROME         SUNNY     57  25  29 VRB6      30.29F
TWIN FALLS     SUNNY     61  27  27 VRB6      30.28F
$$

IDZ019>023-272100-
SOUTHEAST IDAHO


CITY           SKY/WX    TMP DP  RH WIND       PRES   REMARKS
IDAHO FALLS    MOSUNNY   55  22  27 VRB3      30.29F
POCATELLO      MOSUNNY   58  27  30 NW12G18   30.29F
REXBURG        MOSUNNY   54  24  31 W6        30.28F
$$

IDZ006-010-011-018-031-032-272100-
CENTRAL IDAHO MOUNTAINS


CITY           SKY/WX    TMP DP  RH WIND       PRES   REMARKS
MCCALL         SUNNY     56  17  21 VRB5      30.27F
HAILEY         MOSUNNY   55  32  41 SE8       30.30F
STANLEY          N/A     58  19  22 N9        30.29F
SALMON         SUNNY     54  27  35 N3        30.30F
CHALLIS        SUNNY     52  26  36 VRB6      30.30F
$$

IDZ002-004-006-007-026-272100-
NORTHERN IDAHO


CITY           SKY/WX    TMP DP  RH WIND       PRES   REMARKS
LEWISTON       SUNNY     66  26  22 VRB3      30.30F
LOWELL           N/A     67  30  25 CALM      30.30F
COEUR D`ALENE  MOSUNNY   61  25  25 CALM      30.33F
MULLAN PASS    SUNNY     47  21  35 VRB6      30.33S
$$



USA.gov is the U.S. government's official web portal to all federal, state and local government web resources and services.